Location: NJAA Observatory
(40.6819°N, 74.8979°W)
Time: 23:37:31
(UTC-04:00)

Iridium 56 - Visible Passes

Search period start: 31 August 2016 00:00
Search period end: 10 September 2016 00:00
Orbit: 776 x 779 km, 86.4° (Epoch: 31 August)

Date Brightness Start Highest point End Pass type
(mag) Time Alt. Az. Time Alt. Az. Time Alt. Az.
31 Aug 6.2 20:41:11 10° NNE 20:45:55 34° E 20:48:42 21° SE visible
31 Aug 7.4 22:22:11 10° NNW 22:26:27 26° W 22:29:12 17° SW visible
01 Sep 6.9 20:08:27 10° NNE 20:12:09 19° ENE 20:15:37 11° ESE visible
01 Sep 6.4 21:48:07 10° NNW 21:53:07 48° W 21:56:07 23° SSW visible
02 Sep 5.5 21:14:25 10° N 21:19:41 89° W 21:23:04 22° S visible
03 Sep 5.7 20:41:02 10° N 20:46:06 49° E 20:50:04 16° SSE visible
03 Sep 7.9 22:22:52 10° NW 22:26:22 18° W 22:29:51 10° WSW visible
04 Sep 6.5 20:07:58 10° NNE 20:12:24 27° E 20:16:47 10° SE visible
04 Sep 7.1 21:48:28 10° NNW 21:53:06 33° W 21:57:38 10° SSW visible
05 Sep 6.0 21:14:34 10° N 21:19:44 62° W 21:24:47 10° SSW visible
06 Sep 5.4 20:41:00 10° N 20:46:13 72° E 20:51:25 10° S visible
06 Sep 8.3 22:24:04 10° NW 22:26:13 13° WNW 22:28:23 10° WSW visible
07 Sep 6.0 20:07:42 10° NNE 20:12:35 39° E 20:17:27 10° SSE visible
07 Sep 7.7 21:48:59 10° NNW 21:53:02 23° W 21:57:05 10° SW visible
08 Sep 6.7 21:14:50 10° NNW 21:19:44 42° W 21:24:36 10° SSW visible
09 Sep 5.6 20:41:04 10° N 20:46:18 79° W 20:51:30 10° S visible
